TimeEDT,TemperatureF,Dew PointF,Humidity,Sea Level PressureIn,VisibilityMPH,Wind Direction,Wind SpeedMPH,Gust SpeedMPH,PrecipitationIn,Events,Conditions,WindDirDegrees,DateUTC
12:56 AM,43.0,37.9,82,29.96,10.0,SSW,6.9,-,N/A,,Clear,200,2012-10-10 04:56:00
1:56 AM,44.1,39.0,82,29.96,10.0,SSW,9.2,-,N/A,,Clear,210,2012-10-10 05:56:00
2:56 AM,42.1,39.0,89,29.94,10.0,SSW,5.8,-,N/A,,Clear,200,2012-10-10 06:56:00
3:56 AM,42.1,39.0,89,29.92,10.0,South,5.8,-,N/A,,Clear,190,2012-10-10 07:56:00
4:56 AM,42.1,39.9,92,29.91,10.0,SSW,5.8,-,N/A,,Partly Cloudy,200,2012-10-10 08:56:00
5:56 AM,44.1,41.0,89,29.89,10.0,SSW,9.2,-,N/A,,Mostly Cloudy,210,2012-10-10 09:56:00
6:56 AM,45.0,41.0,86,29.90,10.0,SSW,10.4,-,N/A,,Scattered Clouds,210,2012-10-10 10:56:00
7:56 AM,44.1,41.0,89,29.91,10.0,SW,9.2,-,N/A,,Overcast,220,2012-10-10 11:56:00
8:24 AM,44.6,41.0,87,29.91,10.0,SW,9.2,-,N/A,,Overcast,220,2012-10-10 12:24:00
8:56 AM,45.0,42.1,90,29.93,10.0,SSW,6.9,-,N/A,,Overcast,210,2012-10-10 12:56:00
9:40 AM,44.6,42.8,93,29.93,7.0,WSW,3.5,-,0.01,Rain,Light Rain,250,2012-10-10 13:40:00
9:56 AM,46.0,43.0,89,29.96,8.0,West,9.2,-,0.01,,Overcast,280,2012-10-10 13:56:00
10:19 AM,44.6,42.8,93,29.95,3.0,WNW,9.2,-,0.00,Rain,Light Rain,300,2012-10-10 14:19:00
10:27 AM,44.6,42.8,93,29.95,10.0,WNW,6.9,-,0.00,,Overcast,290,2012-10-10 14:27:00
10:37 AM,44.6,42.8,93,29.95,10.0,WNW,8.1,-,0.00,,Overcast,290,2012-10-10 14:37:00
10:52 AM,46.4,42.8,87,29.96,10.0,West,5.8,-,0.00,,Overcast,280,2012-10-10 14:52:00
10:56 AM,46.0,43.0,89,29.97,10.0,WNW,9.2,-,0.00,,Overcast,290,2012-10-10 14:56:00
11:11 AM,46.4,42.8,87,29.96,10.0,WNW,6.9,-,N/A,,Overcast,290,2012-10-10 15:11:00
11:37 AM,48.2,39.2,71,29.97,10.0,WNW,12.7,19.6,N/A,,Overcast,290,2012-10-10 15:37:00
11:56 AM,46.9,39.9,77,30.00,10.0,West,11.5,19.6,N/A,,Overcast,280,2012-10-10 15:56:00
12:38 PM,48.2,37.4,66,29.99,10.0,WNW,10.4,18.4,N/A,,Overcast,290,2012-10-10 16:38:00
12:47 PM,48.2,39.2,71,29.99,10.0,WNW,8.1,-,N/A,,Overcast,300,2012-10-10 16:47:00
12:56 PM,48.9,37.9,66,30.00,10.0,WNW,12.7,17.3,N/A,,Overcast,300,2012-10-10 16:56:00
1:56 PM,53.1,37.0,55,29.99,10.0,West,9.2,23.0,N/A,,Mostly Cloudy,280,2012-10-10 17:56:00
2:56 PM,52.0,33.1,49,29.99,10.0,WNW,17.3,25.3,N/A,,Mostly Cloudy,290,2012-10-10 18:56:00
3:56 PM,50.0,33.1,52,30.01,10.0,WNW,12.7,20.7,N/A,,Mostly Cloudy,290,2012-10-10 19:56:00
4:56 PM,50.0,30.9,48,30.03,10.0,WNW,11.5,25.3,N/A,,Overcast,290,2012-10-10 20:56:00
5:56 PM,50.0,30.0,46,30.05,10.0,West,15.0,23.0,N/A,,Partly Cloudy,270,2012-10-10 21:56:00
6:56 PM,46.9,30.0,52,30.08,10.0,West,10.4,21.9,N/A,,Mostly Cloudy,280,2012-10-10 22:56:00
7:56 PM,44.1,30.9,60,30.13,10.0,WNW,9.2,-,N/A,,Mostly Cloudy,290,2012-10-10 23:56:00
8:56 PM,44.1,30.0,58,30.17,10.0,WNW,8.1,-,N/A,,Overcast,290,2012-10-11 00:56:00
9:56 PM,39.0,30.0,70,30.19,10.0,West,5.8,-,N/A,,Clear,280,2012-10-11 01:56:00
10:56 PM,37.9,28.9,70,30.22,10.0,West,5.8,-,N/A,,Clear,280,2012-10-11 02:56:00
11:56 PM,35.1,28.9,78,30.22,10.0,WNW,5.8,-,N/A,,Clear,290,2012-10-11 03:56:00